User: anonymous   Login
Location: Bothell
(47.7630°N, 122.2040°W)
Time: 04:31:15
(UTC-08:00)
Language:

Oscar 16 - Orbit

View from above orbital plane
View from above orbital plane
View from above satellite
View from above satellite

Ground track
Ground track

The orbit data is extracted from the following two-line orbital elements,

1 20439U 90005D   15059.80093693  .00000195  00000-0  87879-4 0  9998
2 20439 098.5327 357.6384 0011851 117.8712 269.4548 14.32496197311226
Epoch (UTC): 28 February 2015 19:13:20
Eccentricity: 0.0011851
inclination: 98.5327°
perigee height: 775 km
apogee height: 792 km
right ascension of ascending node: 357.6384°
argument of perigee: 117.8712°
revolutions per day: 14.32496197
mean anomaly at epoch: 269.4548°
orbit number at epoch: 31122

The dashed part of the orbit path shows where the satellite is in the earth's shadow,  

DLR